Wind_Speed
10 10 10 10 10 10 10 9 9 9 9 9 9 8 8 8 7 7 6 6 6 7 10 12 13 14 14 14 13 11 10 8 6 5 5 5 5 8 11 14 16 19 21 21 20 18 16 16 15 11 8 9 10 10 9 6 5 2 3 6 6 8 10 4 2 2 6 7 6 7 7 6 5 3 3 4 6 7 7 7 7 7 6 6 7 7 7 7
11 11 11 11 11 11 11 10 10 10 10 10 9 9 8 8 8 8 8 7 7 6 7 9 12 14 15 16 15 14 11 9 8 4 4 5 6 11 11 11 14 16 19 21 21 20 19 17 16 13 12 14 12 10 7 6 4 1 1 5 6 5 7 6 3 2 5 5 5 6 7 6 5 4 4 4 4 5 7 6 8 8 7 7 8 8 8 8
11 11 11 11 11 11 11 11 11 11 11 11 11 10 9 9 8 8 8 8 8 7 7 7 8 11 14 16 16 16 13 11 7 3 6 6 6 10 11 11 13 15 18 20 21 22 20 18 18 16 17 16 12 9 6 5 4 3 2 3 4 3 2 4 3 3 5 5 5 6 7 7 6 5 5 5 4 6 6 7 9 9 8 8 10 9 9 8
11 11 11 11 11 12 12 12 12 12 12 12 12 11 11 10 9 9 9 8 8 8 8 7 7 8 11 14 16 17 15 12 6 5 9 7 5 9 11 12 12 16 18 20 21 22 21 20 19 18 17 15 12 11 7 5 2 1 2 3 2 1 2 3 5 4 6 5 6 6 7 7 6 6 6 6 5 6 6 7 8 8 9 9 10 10 9 8
11 11 11 11 11 11 11 12 12 12 12 12 12 12 12 11 11 10 9 9 9 8 8 8 7 7 8 10 14 16 17 12 7 10 12 8 9 9 10 12 12 16 18 19 20 21 21 20 19 18 17 15 13 11 8 7 3 5 4 5 9 3 2 2 5 5 7 6 6 6 6 7 8 7 7 8 7 7 7 6 7 9 9 9 9 10 10 8
11 11 11 11 11 11 11 11 12 12 12 13 13 12 12 12 12 11 11 10 9 9 8 8 8 8 8 8 10 13 16 14 11 13 13 10 11 10 10 12 12 15 17 18 20 21 21 20 20 19 17 16 14 11 9 7 8 9 9 6 9 6 4 2 2 6 9 8 7 6 6 6 8 9 8 8 8 9 8 7 8 9 9 9 9 9 9 8
11 11 12 12 12 11 11 11 11 12 12 12 13 13 12 12 12 12 12 11 11 10 9 9 9 9 8 8 8 9 12 15 13 13 13 13 13 12 11 11 11 14 15 17 19 20 21 21 20 20 19 17 14 12 12 7 14 19 13 8 7 7 7 4 3 8 10 9 8 6 6 6 8 9 9 8 8 9 8 8 9 9 9 9 8 8 8 8
11 11 11 11 12 11 11 11 11 11 11 12 12 12 13 13 12 12 12 12 12 11 10 10 9 9 9 8 8 7 8 11 13 16 17 14 15 15 14 12 11 12 14 17 18 20 22 22 21 21 21 19 16 14 9 12 16 14 16 14 10 8 9 6 5 8 9 9 8 7 6 7 9 8 9 9 9 9 7 8 9 9 10 9 9 9 8 9
11 10 11 11 11 11 11 11 11 11 11 11 11 12 12 12 13 13 12 13 13 13 12 11 11 10 10 9 9 7 8 9 11 18 19 15 16 17 16 14 12 12 14 17 18 20 22 22 23 23 22 21 20 17 9 10 15 10 13 19 15 9 9 8 8 8 8 9 8 8 8 8 9 9 9 9 9 10 7 7 9 10 10 10 10 9 9 10
12 11 11 11 12 12 12 12 12 12 11 11 11 11 12 12 13 13 13 13 13 13 13 13 12 11 10 10 9 8 9 9 9 14 17 17 18 18 18 16 14 13 14 17 19 19 21 22 23 24 24 26 23 19 14 11 11 8 10 19 18 12 12 9 6 7 9 10 8 9 9 9 9 9 8 7 9 10 8 7 8 10 10 10 10 10 9 10
14 13 13 13 13 13 13 13 13 13 13 12 12 12 12 12 12 13 13 13 14 14 14 14 14 13 12 11 9 8 10 10 9 11 14 17 19 20 20 19 16 15 15 17 19 20 20 23 25 26 27 27 26 21 15 14 14 12 8 16 19 15 15 11 3 6 14 13 10 10 10 10 10 9 8 7 8 9 8 7 7 9 10 10 10 10 10 11
16 15 15 15 15 15 15 15 15 14 14 14 14 13 13 13 13 13 13 13 14 14 14 15 15 15 14 12 10 10 10 10 10 10 11 14 18 20 21 21 20 17 16 17 20 21 22 24 27 29 28 26 26 21 15 17 17 14 13 15 23 17 13 12 8 9 12 12 10 12 12 11 10 10 10 8 8 9 8 7 7 8 9 9 10 11 10 11
18 18 17 17 17 17 17 17 16 16 16 16 16 15 15 14 14 14 14 14 14 15 15 15 15 15 15 14 12 12 12 10 10 10 9 11 14 19 22 23 22 20 18 18 20 23 24 27 29 29 28 26 25 20 16 19 20 21 19 17 19 14 14 13 11 8 8 11 11 12 13 11 10 11 11 9 8 10 9 7 7 7 9 9 10 11 10 11
20 20 19 19 19 19 19 19 18 18 17 17 17 17 17 16 16 16 16 15 15 15 15 15 16 16 16 15 13 13 13 11 11 10 9 10 11 15 20 23 24 23 21 19 20 23 25 28 29 28 28 26 25 24 23 23 23 23 18 15 14 13 14 16 13 9 10 13 12 13 14 12 11 11 13 10 9 10 9 8 7 7 9 10 11 11 10 10
22 22 22 21 21 21 21 21 20 20 19 19 19 18 18 18 18 18 18 17 17 17 16 16 16 16 16 16 14 13 13 12 12 11 10 10 10 13 17 22 25 24 23 22 21 22 25 27 27 27 28 26 26 27 26 23 21 22 19 16 13 12 14 17 14 12 13 15 13 13 15 14 12 12 14 12 10 10 9 9 8 7 9 10 12 11 9 10
22 23 23 23 22 22 22 22 22 22 21 21 20 20 20 19 19 19 19 19 18 19 18 18 18 17 16 17 16 15 14 13 13 13 11 10 10 11 13 18 23 25 25 24 23 22 25 28 28 26 26 29 29 27 27 23 19 20 21 17 14 10 11 15 13 12 16 16 14 15 16 15 12 13 15 13 10 10 9 9 8 8 9 10 11 11 9 9
21 22 23 23 23 23 23 23 23 23 23 23 23 23 22 21 21 20 20 20 20 20 20 20 19 18 18 17 16 16 14 14 15 14 12 10 10 11 12 15 20 25 26 26 26 24 25 27 28 27 28 30 29 27 28 28 22 20 20 16 13 12 14 18 15 13 16 17 15 16 17 15 13 13 15 13 11 11 10 9 8 8 10 10 11 11 10 9
20 21 22 23 23 23 23 24 24 24 25 25 24 25 24 23 22 22 21 21 21 22 22 22 19 19 20 17 16 17 15 14 16 15 13 12 10 10 12 13 16 22 27 29 28 26 26 26 28 29 30 28 27 28 29 28 23 18 16 13 11 11 17 23 18 15 16 17 17 18 18 17 14 14 13 12 11 11 12 10 8 8 9 11 11 12 11 10
21 22 23 23 23 23 23 24 24 24 25 26 25 26 26 24 24 24 22 22 23 23 23 22 19 21 22 17 17 19 16 15 18 17 15 13 12 11 12 13 15 18 24 29 29 28 28 27 30 29 27 26 26 29 26 23 23 18 13 13 7 8 18 23 19 17 15 16 18 19 19 18 17 16 13 11 12 12 13 11 9 9 9 11 12 12 12 11
22 23 24 25 25 24 23 23 24 24 25 26 25 26 26 24 26 24 22 23 25 24 24 22 19 22 23 20 19 20 17 17 19 19 17 15 14 12 12 13 14 16 20 25 28 30 30 30 31 27 24 24 25 28 25 21 24 21 18 17 14 14 20 18 15 18 17 17 19 20 20 20 20 20 16 13 13 13 14 13 11 10 9 10 11 12 12 12
22 23 24 26 27 27 25 25 25 25 26 27 27 27 26 25 27 25 22 23 25 26 25 23 21 20 24 24 20 19 19 19 19 20 19 16 16 15 13 13 14 15 16 21 26 30 33 33 30 26 23 25 26 27 25 24 27 24 21 18 18 20 21 15 13 20 21 17 19 21 22 22 21 20 18 17 15 14 14 14 13 12 11 10 11 12 12 13
22 23 25 26 28 28 27 27 27 27 27 28 28 29 28 27 28 27 25 23 24 28 26 24 24 20 23 26 21 20 21 19 20 22 21 18 17 16 15 15 14 14 16 20 25 28 32 31 28 26 24 26 28 28 26 25 29 28 23 20 19 20 19 16 14 20 26 20 18 22 23 22 22 20 19 19 16 14 15 15 15 14 13 12 11 12 12 12
26 26 27 28 29 29 29 29 29 29 29 29 30 30 30 30 30 29 28 25 23 27 27 24 25 21 22 26 23 22 20 19 23 24 21 19 19 19 18 16 15 15 17 19 21 24 26 26 27 28 26 27 29 28 28 28 30 31 28 23 23 22 20 20 16 20 30 26 19 22 23 22 23 22 21 20 17 15 16 17 17 16 15 14 13 13 13 12
30 30 30 30 32 31 30 30 31 31 31 31 31 31 32 31 32 31 31 28 24 26 29 26 24 23 22 25 26 23 19 21 26 25 22 20 21 23 19 17 18 18 18 18 19 21 21 22 27 29 29 29 30 31 32 31 31 32 31 27 25 22 17 17 17 20 28 27 20 20 23 24 24 24 24 22 18 17 19 18 18 18 16 16 15 14 14 13
35 34 34 34 35 35 34 33 32 32 32 33 32 32 33 32 33 32 32 32 26 25 30 28 24 23 23 26 27 23 23 26 26 24 24 22 23 25 21 20 21 19 18 18 19 20 18 21 27 30 31 31 31 33 33 32 32 33 33 30 26 19 16 17 17 21 27 27 22 21 24 26 26 26 26 24 21 22 22 20 19 19 18 18 17 16 15 15
38 38 37 37 38 38 38 37 35 35 34 33 33 33 34 33 34 33 32 33 29 26 30 29 26 23 22 25 26 26 28 26 22 25 27 24 24 26 24 24 22 18 18 19 20 20 18 20 25 29 32 33 34 34 33 32 34 34 32 30 29 25 21 21 19 24 32 31 28 26 27 28 28 28 29 28 26 25 23 21 21 21 20 19 17 17 17 17
40 39 39 38 38 38 40 40 39 39 37 34 34 34 34 34 34 34 33 34 31 29 30 30 28 25 23 25 26 27 29 26 24 28 27 23 25 27 27 26 23 20 20 21 22 21 17 18 22 27 32 35 37 36 33 32 35 35 30 28 29 29 28 24 21 26 32 30 29 28 27 28 29 30 30 29 28 27 25 23 23 23 22 20 19 18 18 18
42 42 41 41 41 40 41 42 42 42 41 39 38 37 36 36 36 35 35 36 34 31 30 29 30 29 28 29 27 27 29 28 28 27 25 25 27 29 29 26 24 23 22 24 24 20 18 19 22 25 29 32 36 36 33 32 36 36 31 28 28 28 30 28 24 26 27 27 30 30 28 29 30 31 32 30 30 31 28 26 25 25 23 22 22 21 20 20
45 45 45 44 44 44 43 44 45 44 44 42 42 42 40 40 39 38 39 38 33 31 31 30 30 31 33 33 30 30 32 30 29 29 28 29 29 29 29 26 26 26 26 27 25 22 22 22 22 25 26 27 31 36 35 34 37 36 32 30 29 29 28 27 25 26 29 33 35 33 31 31 29 31 33 32 31 30 29 28 26 25 24 23 24 23 21 22
49 49 48 47 47 47 46 47 47 47 47 46 45 45 44 43 42 42 44 41 34 34 37 35 32 32 33 33 31 31 34 31 31 34 31 28 29 30 29 29 30 30 30 29 26 24 23 23 24 25 24 25 29 35 37 36 38 37 34 33 33 30 26 27 28 27 32 41 42 35 31 32 32 31 31 32 32 28 27 28 27 25 25 24 23 23 23 23
52 52 51 51 50 49 49 50 49 49 50 50 49 48 47 46 46 47 46 41 37 39 42 40 37 36 35 34 32 32 34 33 34 38 34 30 31 32 32 32 32 32 32 31 29 25 23 24 25 24 23 25 28 33 38 39 37 36 37 36 35 31 28 32 35 32 36 44 42 35 29 31 35 32 28 30 31 28 28 28 28 28 27 24 23 24 24 25
55 55 55 55 53 51 52 52 51 51 52 52 52 51 50 49 49 50 46 42 42 42 43 44 44 41 39 37 37 37 36 35 36 39 36 33 34 35 34 33 33 33 32 31 28 26 26 25 24 24 24 25 28 30 35 38 35 37 40 39 36 34 32 38 43 39 38 38 32 28 29 33 35 31 27 28 29 28 29 29 27 30 28 23 23 25 25 27
58 58 58 57 56 53 53 53 53 53 53 53 54 53 53 54 53 49 46 45 46 43 42 47 48 46 43 40 39 40 38 37 38 40 39 36 36 37 37 35 35 35 33 31 30 30 30 28 27 28 26 26 29 28 31 38 41 43 46 44 40 38 38 40 41 37 35 35 30 27 32 36 36 32 26 27 29 28 28 29 28 32 31 23 23 27 27 28
59 59 59 59 58 56 55 55 55 54 54 54 55 54 55 57 53 49 48 48 47 44 44 48 48 49 48 44 41 41 41 40 39 41 42 40 39 41 40 38 38 37 33 34 35 34 34 33 31 30 27 25 27 26 27 35 43 46 44 44 43 42 44 42 37 35 35 35 31 27 33 39 34 29 27 27 29 28 27 27 28 34 34 27 28 30 30 30
61 62 62 61 61 60 59 58 57 57 57 56 57 57 58 57 52 50 50 50 49 48 47 48 48 49 50 49 46 43 43 43 42 43 45 44 43 43 43 40 38 37 36 36 38 37 36 36 32 28 27 27 26 24 25 31 40 44 40 42 47 47 45 42 37 33 31 31 30 28 34 36 30 27 27 27 26 26 28 28 29 33 32 29 31 30 28 29
64 64 64 64 63 63 63 62 60 60 60 59 60 61 59 56 53 52 51 51 52 51 50 50 50 51 51 50 50 49 45 43 43 45 47 48 46 44 44 43 40 39 39 37 37 37 37 37 34 32 31 31 30 27 27 30 34 38 39 42 46 45 45 44 40 33 29 31 32 30 31 30 28 28 27 26 26 25 27 27 28 32 30 28 30 30 28 27
67 66 66 66 65 66 66 64 62 62 62 62 64 63 60 58 57 56 54 53 54 54 54 54 54 54 53 50 52 52 49 44 44 46 48 50 50 47 46 45 43 42 40 38 36 36 37 36 34 36 35 33 32 30 29 30 32 35 39 42 40 41 46 47 43 36 35 38 35 31 30 30 30 29 25 27 28 25 25 26 25 27 27 26 28 29 27 24
69 68 67 68 68 68 67 65 64 64 65 66 66 64 62 62 61 59 58 57 56 56 58 59 57 56 55 53 53 52 50 49 48 47 48 50 52 51 48 46 46 45 42 39 37 37 38 36 32 34 36 34 35 34 33 32 32 34 38 37 36 41 49 50 46 42 42 43 39 33 31 32 31 28 26 27 25 23 24 23 21 21 23 23 21 22 25 24
71 70 69 70 70 70 69 67 66 66 67 68 67 65 63 63 62 61 60 60 60 61 61 61 60 59 57 56 55 51 47 50 52 48 48 51 53 53 52 49 47 47 45 42 39 37 39 39 36 32 31 34 38 40 39 36 33 34 37 35 34 39 46 47 47 48 46 43 39 35 33 33 30 27 27 25 22 25 28 24 22 21 23 24 21 22 30 29
74 73 71 71 71 73 72 70 69 70 70 69 67 65 64 63 62 62 62 62 63 64 64 63 62 62 61 59 58 51 43 43 46 47 49 52 52 53 54 53 49 47 47 46 43 38 38 42 40 31 27 36 46 45 40 37 33 34 39 41 38 39 42 43 45 48 49 45 40 37 38 36 28 23 25 25 25 30 34 33 31 28 26 28 25 23 31 33
77 75 73 72 73 75 75 72 70 71 71 70 69 67 66 64 64 63 62 64 65 66 67 67 67 66 65 62 60 54 45 39 38 41 47 51 52 51 51 52 51 46 44 48 49 44 40 42 44 36 31 39 49 46 39 36 35 35 37 40 41 41 38 38 42 44 47 49 44 39 39 36 28 22 24 26 28 33 34 32 32 28 25 28 23 20 28 34
78 76 73 72 73 74 74 73 71 71 72 72 71 69 67 66 65 64 64 65 67 68 69 70 70 70 69 66 62 55 48 43 40 38 42 49 52 50 47 48 49 45 42 46 51 49 43 42 46 44 39 38 40 42 42 40 37 36 37 37 41 44 40 37 41 42 43 45 45 43 43 39 31 25 24 25 26 30 30 23 23 23 19 21 21 21 28 33
79 76 71 68 69 71 73 73 73 71 71 71 70 69 68 67 66 66 66 67 68 70 72 73 72 72 72 70 66 61 54 49 46 42 41 44 47 47 47 46 42 41 42 42 45 50 48 44 46 48 46 41 34 36 43 44 41 41 41 39 40 44 45 44 43 41 40 42 43 44 48 46 38 30 27 27 27 29 26 20 21 21 16 17 21 23 28 31
78 74 68 63 64 67 70 71 70 69 67 67 67 67 67 67 67 67 68 69 70 72 73 74 73 72 73 72 71 69 63 58 56 52 45 39 36 41 44 41 38 39 40 41 41 46 50 49 48 49 51 48 39 35 41 45 45 45 44 41 40 40 43 48 45 36 36 42 44 43 43 43 39 33 31 32 30 30 27 23 23 22 20 23 27 29 33 35
74 71 65 60 58 61 65 66 66 66 65 65 66 68 69 70 70 70 71 72 73 75 75 75 73 72 72 72 72 71 70 67 65 62 56 45 37 41 39 33 35 37 37 40 41 40 45 49 49 51 54 55 49 44 44 46 45 45 43 40 41 40 40 45 48 43 39 40 41 44 42 37 36 35 33 33 32 29 28 28 28 25 26 30 32 35 38 40
68 66 61 56 55 57 59 61 62 63 64 66 68 69 70 72 73 73 75 76 76 74 72 72 71 71 72 74 75 73 71 71 69 67 64 55 45 40 37 33 35 39 38 41 42 40 40 44 49 54 54 54 53 47 44 43 43 45 44 40 40 41 40 41 46 50 50 44 38 39 42 40 36 36 35 33 31 30 30 31 31 28 28 33 37 38 38 40
62 61 57 55 54 54 54 55 55 56 57 61 64 66 68 70 73 74 75 78 79 76 75 73 71 69 68 70 74 74 69 69 71 69 67 63 52 38 35 39 42 44 44 44 44 43 38 34 41 53 54 51 51 47 40 37 38 41 42 42 40 40 40 42 45 47 50 52 48 43 44 45 43 38 35 33 32 32 33 35 33 34 32 32 35 39 39 37
55 55 53 52 53 51 49 51 52 50 49 51 55 60 63 67 70 71 71 72 75 77 79 79 76 71 62 56 59 63 63 65 71 70 66 67 61 47 38 41 43 44 44 44 47 49 45 39 39 46 52 50 49 48 41 35 36 37 36 37 39 38 38 41 44 44 46 51 54 51 48 47 47 46 41 35 34 37 39 40 37 36 35 33 33 39 40 37
50 50 48 48 49 46 44 45 47 48 47 46 49 52 55 61 66 66 65 64 65 69 73 74 75 75 72 67 65 66 66 66 72 74 69 65 65 56 44 39 39 40 43 46 50 56 55 53 51 49 49 49 48 49 46 39 34 33 32 32 34 35 37 39 41 43 47 50 50 50 49 46 48 51 48 40 36 38 40 41 40 37 36 35 35 37 38 40
45 45 45 45 44 39 36 35 37 42 43 44 47 48 49 53 56 57 58 59 60 64 68 70 72 72 74 73 70 70 72 70 72 78 77 71 66 60 52 43 39 40 42 42 50 61 62 60 59 56 52 50 48 46 47 46 39 34 32 32 32 33 33 37 40 42 45 46 43 44 51 54 53 53 50 47 42 37 36 37 36 36 35 35 36 37 36 38
40 40 40 40 36 32 30 28 30 35 37 39 43 46 45 46 47 48 51 55 59 62 64 67 68 68 70 69 65 68 74 73 69 72 77 80 76 68 64 60 51 44 41 38 43 56 62 61 58 56 55 54 49 41 40 45 46 43 41 37 34 36 34 34 38 41 43 44 41 41 47 52 53 53 53 50 45 40 40 41 37 34 33 35 39 43 42 39
35 34 31 31 28 26 27 25 24 28 30 32 37 41 42 44 45 46 48 52 59 62 63 65 65 63 65 68 67 68 72 73 69 65 67 76 81 75 69 69 64 49 37 36 38 43 52 58 56 54 56 57 53 45 38 37 43 50 53 47 39 36 35 33 35 36 33 34 39 42 43 45 47 46 47 47 46 45 46 49 47 40 34 34 36 41 45 44
Wind_Direction
347 349 352 353 355 354 351 348 344 341 337 332 328 325 323 321 320 318 318 313 299 279 261 252 241 236 237 240 240 238 238 239 240 242 257 252 201 201 206 209 213 209 209 209 206 206 198 195 205 208 200 193 189 198 202 191 182 68 66 156 172 140 137 174 178 203 273 303 305 297 297 299 300 272 259 257 245 238 238 234 237 237 234 234 214 209 218 213
336 338 340 343 346 348 350 350 348 346 343 339 336 332 327 322 317 315 315 313 311 303 286 267 253 243 237 239 240 239 237 239 241 239 258 253 213 219 224 216 211 210 211 210 207 205 199 193 202 203 196 203 195 182 196 204 171 60 56 150 171 156 137 155 165 237 269 291 292 291 288 288 293 282 261 254 243 238 232 226 240 245 239 234 223 216 216 211
330 331 331 332 334 336 339 341 344 344 344 343 341 338 334 328 323 317 313 310 309 308 308 294 273 256 244 240 240 242 237 236 240 228 239 239 221 224 228 223 212 209 211 211 208 206 202 194 199 202 199 200 192 176 194 217 180 152 137 108 160 166 133 167 158 278 274 278 282 282 278 277 277 268 261 255 246 241 226 225 241 247 246 242 233 220 209 203
327 327 327 328 327 328 328 329 332 334 337 339 340 340 339 335 330 325 320 314 310 309 308 305 296 278 260 248 243 245 241 236 225 221 234 231 225 228 227 225 214 209 211 212 210 207 205 202 202 203 201 200 194 185 188 210 251 292 125 60 307 105 44 160 153 258 268 269 278 277 266 264 261 255 258 255 252 248 240 235 237 241 243 244 237 222 212 197
323 324 325 326 327 327 325 324 323 324 326 329 333 336 338 338 335 331 328 321 317 314 309 305 300 293 283 265 251 248 247 239 214 224 232 222 222 226 227 227 219 211 211 213 211 210 209 207 206 205 206 205 197 185 189 207 230 269 252 321 313 328 10 179 151 240 274 277 271 272 262 254 250 245 248 252 252 247 247 248 244 242 236 239 239 227 224 201
320 321 322 323 325 325 325 324 322 321 320 320 323 327 331 335 335 334 331 328 324 319 316 309 302 296 291 284 269 256 251 244 227 231 230 222 226 224 226 229 223 217 214 214 213 213 211 209 209 207 208 210 211 194 182 228 288 284 253 279 305 301 293 275 179 249 270 279 270 261 257 247 239 236 237 242 246 246 247 251 248 245 236 233 235 229 230 207
317 318 319 319 319 320 321 322 321 321 319 317 316 317 321 324 328 330 330 329 327 323 320 313 308 302 294 290 286 272 260 249 238 239 233 224 228 228 228 229 226 223 219 215 214 215 212 211 211 209 211 211 216 203 172 208 284 294 277 264 287 276 270 270 253 263 264 268 265 258 253 235 229 229 229 231 240 247 247 248 244 240 234 225 230 229 223 214
312 314 315 315 315 316 317 317 317 318 318 316 314 313 312 314 317 320 323 325 326 325 323 317 312 307 302 297 290 286 273 256 238 237 235 221 223 230 230 229 226 224 220 216 213 215 213 211 210 210 215 210 207 214 192 180 211 255 270 267 279 266 263 263 251 270 273 264 254 252 248 226 221 220 225 230 244 256 251 248 241 232 231 227 233 229 212 215
305 308 311 313 315 315 316 315 315 315 315 314 313 312 310 309 309 310 313 316 318 321 321 320 317 311 307 302 297 293 276 262 240 239 239 225 221 229 231 230 225 221 219 216 213 213 213 210 210 211 213 213 210 214 224 207 204 231 269 271 276 267 265 266 261 275 273 260 251 251 246 225 216 218 228 230 242 261 262 250 243 234 234 235 234 224 206 201
299 302 305 308 310 312 314 314 314 314 313 311 310 310 309 308 307 306 306 307 309 313 314 315 316 315 312 307 302 293 276 267 253 247 246 234 226 228 232 231 225 221 217 215 214 213 213 210 210 212 211 213 212 211 217 216 218 231 265 273 267 251 251 250 264 291 274 256 248 251 243 227 220 221 234 234 243 261 262 244 241 242 238 235 230 218 206 192
293 295 298 300 301 304 305 307 310 312 311 309 307 305 306 306 304 304 303 303 303 304 306 308 310 312 312 312 305 292 283 277 266 256 250 241 233 229 232 234 229 223 218 215 213 211 211 210 210 212 214 217 216 224 221 188 197 206 219 273 270 249 243 240 235 258 261 258 247 251 242 229 227 227 237 239 247 258 254 237 233 244 242 234 228 213 204 192
288 289 291 294 295 296 299 301 304 307 308 306 304 303 302 302 301 301 300 300 300 299 299 300 303 305 307 310 309 297 289 283 272 264 255 246 238 231 230 235 234 227 221 217 212 211 209 209 214 215 216 219 220 231 227 198 203 185 173 250 268 264 252 243 235 221 242 253 240 244 241 231 229 232 242 243 249 256 250 239 231 236 237 232 223 209 205 194
287 288 289 290 291 293 294 296 299 302 304 303 303 302 301 300 299 299 298 298 297 296 295 295 295 298 300 303 306 301 295 288 276 269 259 251 243 234 229 232 236 233 227 221 214 211 209 210 216 219 217 218 217 217 219 216 205 175 174 220 236 255 278 266 245 206 216 241 231 237 239 232 229 235 248 247 247 255 250 244 238 228 225 224 214 205 202 192
288 288 289 289 290 291 292 293 295 297 299 300 301 302 301 300 299 297 297 296 295 294 292 291 291 291 293 296 298 298 298 293 281 274 264 255 249 240 231 229 234 236 231 227 222 214 212 214 217 220 220 221 219 209 210 221 214 197 206 232 209 205 244 256 244 203 215 239 231 233 236 232 233 237 248 251 247 251 249 244 243 231 220 214 208 199 192 183
288 288 288 289 289 290 291 291 292 293 294 295 297 299 300 301 300 299 296 294 294 292 291 289 288 287 287 289 290 291 293 292 286 280 273 261 253 247 236 230 231 235 234 230 228 221 216 219 221 222 220 221 223 218 217 219 220 218 219 237 237 206 216 246 243 205 213 234 229 229 234 234 238 245 250 248 241 244 247 243 238 233 223 211 206 197 181 174
286 287 287 287 288 288 289 289 290 290 291 291 293 294 295 297 299 299 298 296 294 291 290 287 284 284 283 283 285 286 285 285 285 283 280 269 257 253 244 236 231 232 236 233 231 227 221 221 223 224 222 221 222 224 227 222 216 225 220 217 233 233 237 254 244 203 205 222 226 229 234 236 239 251 253 246 235 236 242 243 234 226 226 216 208 200 181 175
286 286 287 287 287 288 288 288 289 290 290 290 290 290 290 292 294 295 295 297 296 292 288 284 284 285 281 280 282 282 281 279 281 283 281 273 264 255 249 243 233 230 233 234 233 230 227 225 224 224 224 224 224 223 226 228 221 218 220 209 201 217 244 252 242 217 218 227 232 234 237 239 240 251 250 240 232 230 233 241 237 225 225 223 215 207 193 184
288 287 288 288 287 288 288 289 290 290 290 290 290 290 289 289 290 289 291 293 293 291 288 286 287 286 280 280 278 275 275 276 278 281 279 276 270 258 253 248 240 233 231 233 233 233 232 229 226 223 224 225 223 221 221 225 225 214 218 219 188 192 236 250 244 230 235 243 239 236 240 241 243 256 251 236 233 229 230 237 238 232 228 226 221 215 206 197
288 288 287 287 286 286 287 288 289 289 290 289 290 290 290 291 289 287 289 288 285 287 288 289 289 283 280 281 275 271 273 274 276 277 275 274 271 264 258 253 248 241 235 235 233 234 235 232 231 227 227 226 220 224 225 217 217 207 207 232 226 204 232 247 246 234 236 240 240 241 244 242 240 251 251 238 237 232 233 238 236 237 233 229 225 219 214 207
288 287 287 286 285 284 283 284 285 286 287 287 288 288 288 290 288 287 288 285 283 284 284 286 286 283 283 279 273 274 274 270 272 275 273 270 269 267 261 255 253 248 242 239 235 235 235 233 236 235 233 231 224 227 227 218 216 201 189 219 242 238 239 249 244 241 243 239 244 248 246 245 239 245 253 245 240 236 237 240 236 235 236 234 228 220 215 211
289 289 288 287 286 285 284 282 281 281 282 283 285 284 286 287 285 286 285 283 284 282 280 282 282 281 282 279 275 276 273 269 271 272 271 269 267 265 262 259 256 254 250 243 236 234 235 236 237 239 238 234 231 231 226 218 218 203 183 200 227 237 248 255 237 246 260 248 245 249 244 247 245 243 246 240 235 238 241 242 240 236 234 232 225 219 216 214
289 289 289 289 287 287 285 283 281 280 279 280 281 281 283 283 282 282 280 280 283 280 277 279 278 277 278 279 280 274 271 270 268 267 268 269 268 264 260 259 257 255 250 244 240 238 240 241 239 239 237 233 231 231 228 219 217 212 194 193 216 231 244 247 230 247 262 253 243 247 242 245 251 246 243 240 234 237 244 244 243 238 233 230 222 218 218 218
284 286 287 287 287 287 286 284 282 280 279 279 279 279 280 280 280 279 276 276 278 277 275 273 274 273 274 279 278 271 269 269 265 263 265 267 267 264 260 258 256 253 250 249 248 247 248 246 240 237 235 234 232 229 229 222 220 218 204 195 208 219 231 238 231 239 251 253 248 247 244 243 249 248 243 239 231 236 243 243 244 241 233 229 224 220 218 217
281 282 283 284 284 284 284 283 281 280 279 278 278 278 277 277 277 276 274 272 272 275 273 269 270 271 271 272 273 274 272 263 261 263 264 264 265 266 264 257 253 251 252 255 254 252 252 244 238 235 232 233 231 228 228 225 223 219 211 207 205 209 223 227 226 229 237 249 248 239 240 239 242 247 246 241 234 237 240 238 240 241 235 231 228 225 219 218
278 279 280 281 280 280 280 279 279 278 277 276 276 276 275 275 274 274 273 270 267 269 271 269 268 266 264 267 271 275 268 259 261 265 262 259 260 264 264 258 255 254 251 253 255 255 251 240 235 233 231 232 231 228 227 226 226 223 220 214 199 202 232 225 221 232 237 250 254 245 246 244 240 242 244 242 237 234 235 234 237 240 239 235 233 231 226 224
276 277 278 278 278 278 277 276 275 275 274 274 275 273 273 273 272 272 273 270 265 263 266 268 267 264 261 264 267 267 264 263 263 261 258 256 257 261 261 260 259 255 250 248 251 253 249 242 237 233 230 230 231 230 227 225 227 227 225 218 199 195 224 230 224 236 249 262 266 259 256 252 245 241 241 242 238 232 229 230 235 237 238 239 238 236 235 236
277 277 277 277 277 276 276 275 273 272 272 272 272 271 271 271 270 270 271 271 267 261 260 261 264 263 258 255 256 260 264 265 259 256 259 258 256 257 257 259 260 254 249 248 251 253 250 245 242 236 231 230 232 231 228 225 226 227 225 224 216 201 203 219 227 235 250 267 273 267 260 253 247 242 241 243 244 241 231 229 233 234 234 236 239 239 238 241
279 279 279 278 277 276 275 275 274 272 270 270 269 269 269 269 269 269 268 268 268 266 263 260 260 259 257 253 251 257 261 261 259 258 259 255 252 254 255 256 258 256 251 249 251 251 248 246 244 241 237 235 236 236 231 226 227 228 223 220 229 224 209 207 216 229 241 255 264 266 262 254 247 242 240 239 241 240 235 234 234 234 235 234 235 238 239 243
280 280 279 278 277 276 274 273 274 273 270 269 267 267 267 266 266 266 265 264 266 268 266 262 256 254 256 256 253 254 256 259 262 258 253 252 253 254 256 255 254 252 250 250 250 245 243 243 242 245 244 239 238 238 233 226 225 227 225 218 220 231 229 219 219 225 231 240 249 255 257 254 249 243 241 238 237 237 236 239 238 238 240 237 237 241 242 249
279 279 279 278 277 276 274 272 271 271 270 268 266 265 264 264 264 264 262 263 264 264 263 261 257 253 253 255 254 253 254 256 259 256 251 251 253 253 252 250 250 250 250 252 249 243 242 242 242 244 244 239 234 236 235 229 225 223 223 223 219 220 229 239 245 238 230 234 237 242 255 259 253 243 237 236 239 241 242 243 244 243 241 239 241 244 245 249
278 278 278 278 277 276 274 272 270 269 269 268 266 264 263 262 261 260 261 264 264 262 262 262 260 256 253 253 252 251 252 251 253 255 253 250 249 250 249 248 249 251 251 253 252 246 242 243 245 244 242 241 236 235 236 233 228 223 220 224 224 218 216 229 239 239 238 238 231 232 248 257 253 245 239 240 239 240 244 245 247 247 242 239 241 243 244 244
278 278 278 278 277 275 273 272 271 268 267 267 265 264 263 261 259 260 261 263 262 261 262 262 259 256 252 252 251 249 250 250 250 252 253 252 250 249 250 251 251 253 252 254 254 251 247 245 247 244 237 239 241 238 237 235 227 219 219 220 220 220 220 222 220 225 242 245 233 231 241 247 251 249 246 247 242 238 241 242 245 249 247 241 240 243 244 243
278 278 278 278 277 275 273 272 270 268 267 266 265 264 263 261 261 263 262 260 259 259 261 261 260 259 254 251 252 251 250 250 250 251 250 250 250 250 248 247 247 248 248 250 250 247 246 241 239 242 237 235 241 238 233 234 229 222 220 219 215 215 222 222 215 219 237 243 235 239 243 241 249 257 254 245 239 238 241 240 240 246 249 243 236 240 241 241
279 279 279 279 278 276 274 272 270 268 267 265 265 264 263 263 265 265 262 260 258 256 257 259 262 263 259 253 251 252 252 250 249 251 251 248 248 249 248 245 244 245 245 247 248 246 245 243 239 241 243 240 244 244 237 235 236 235 231 222 216 216 221 223 221 224 234 237 234 239 242 238 239 254 263 252 239 237 239 238 239 245 248 241 233 234 238 241
279 278 278 278 277 276 275 273 271 268 266 265 264 263 264 266 267 265 263 261 259 256 255 257 259 261 261 258 254 252 252 252 249 249 250 248 246 247 249 247 245 245 244 244 248 248 248 250 245 242 245 244 241 241 238 234 237 243 240 227 221 221 223 224 226 230 236 239 236 235 241 242 235 238 251 254 246 240 237 233 232 240 245 242 236 236 239 243
277 277 276 275 275 274 274 272 271 268 266 265 263 264 265 267 266 263 261 260 258 256 254 254 255 256 258 258 256 254 253 252 250 249 250 248 245 244 247 247 244 243 244 243 246 249 250 252 250 243 241 241 240 236 231 231 234 238 237 234 229 226 226 226 223 226 234 238 239 237 240 245 244 239 239 244 247 242 236 232 228 235 243 242 237 237 236 235
277 277 276 274 273 272 272 271 270 268 266 264 264 265 266 265 263 261 259 256 255 254 253 252 251 252 253 255 255 255 254 252 249 249 251 250 247 243 243 246 245 243 243 242 243 246 248 250 252 250 245 240 239 237 234 232 229 229 236 242 235 224 227 229 223 225 236 238 237 239 238 235 237 240 238 239 244 239 229 227 227 233 238 236 234 238 239 234
279 278 277 276 274 273 272 271 269 267 266 264 264 266 264 262 261 259 257 254 251 250 250 250 249 249 249 251 251 252 253 251 249 248 249 250 250 247 244 245 247 246 244 242 241 242 244 243 244 250 252 245 239 236 235 235 231 230 235 239 234 225 228 229 222 223 233 236 234 236 239 236 232 233 236 238 240 240 236 232 225 227 232 235 239 246 252 250
281 280 279 278 277 275 273 272 270 267 266 265 266 265 263 261 260 257 254 252 250 248 247 247 247 246 246 247 248 247 247 249 251 249 247 248 249 250 249 247 247 249 247 243 239 238 241 241 238 243 250 249 244 238 235 235 235 232 225 223 228 231 232 230 224 223 228 231 233 237 240 239 234 231 238 247 248 244 242 238 229 226 227 231 236 244 255 256
284 282 281 279 277 276 274 272 270 269 268 268 267 265 262 260 257 254 252 249 248 247 246 245 245 244 243 243 243 241 238 242 248 247 245 247 247 248 250 250 248 249 249 246 241 234 236 241 237 232 237 245 247 242 237 236 235 231 226 222 224 229 232 231 226 225 229 229 229 234 239 238 235 232 233 241 248 244 239 240 246 244 225 220 225 232 245 251
285 284 281 279 277 276 275 272 270 269 268 267 266 264 261 258 255 252 250 247 245 244 244 243 242 242 241 240 239 238 232 230 234 238 242 246 245 243 245 247 247 247 247 248 245 235 229 236 238 229 225 241 251 251 247 242 238 235 235 232 229 228 229 231 229 226 229 233 230 229 237 237 232 230 227 225 236 247 245 245 255 257 229 212 213 222 238 250
286 284 281 278 276 275 273 271 269 267 265 264 264 261 258 256 254 251 247 245 243 242 242 241 241 241 241 239 236 233 228 224 223 227 235 242 244 242 240 242 244 243 242 245 249 245 233 232 239 236 229 233 247 255 253 247 242 238 236 236 233 229 225 228 233 229 226 233 237 233 235 234 226 224 225 217 224 245 254 247 244 251 240 216 210 218 235 248
285 283 280 276 273 272 270 269 268 265 262 262 260 257 255 253 250 248 245 242 241 240 239 240 239 239 240 239 235 230 225 221 218 218 226 235 242 244 242 240 238 237 237 237 242 247 240 229 232 237 235 229 231 246 252 249 245 240 235 234 234 233 232 231 234 234 228 227 233 236 237 235 227 222 225 221 217 230 244 239 228 232 237 234 228 224 231 241
283 281 278 273 270 270 269 268 267 263 259 258 255 252 250 248 245 243 241 239 238 237 237 238 238 238 238 238 237 233 228 224 219 215 216 221 234 246 245 238 231 227 229 230 231 240 242 233 227 231 237 233 223 228 241 243 242 240 236 234 234 235 236 231 226 229 234 232 229 233 238 241 238 229 224 224 222 223 226 226 226 220 211 221 230 226 225 231
281 279 277 272 268 266 266 265 263 260 256 252 249 247 245 242 240 238 236 235 235 235 236 236 236 235 235 235 236 234 229 226 223 219 214 206 212 231 233 229 233 228 220 223 225 229 238 239 231 229 236 238 229 221 229 239 243 244 241 236 236 236 234 231 223 218 226 236 237 235 234 237 243 239 229 225 225 224 223 220 217 212 204 208 218 224 224 227
279 278 275 271 266 264 263 262 260 257 254 250 247 246 244 241 239 236 234 232 231 232 234 235 234 233 232 231 231 232 229 226 224 223 219 207 202 217 218 210 226 228 212 211 218 220 228 237 236 233 234 239 238 229 227 237 245 248 247 242 238 238 235 231 226 222 222 227 234 238 233 226 228 236 237 233 225 223 232 230 212 203 210 213 215 220 222 224
277 276 275 271 266 263 262 260 257 255 253 251 249 246 242 240 239 238 236 233 229 228 229 229 229 229 230 230 230 229 227 224 222 223 223 215 202 204 210 205 215 224 212 203 207 214 219 226 233 235 233 234 237 234 227 230 240 246 248 247 243 238 233 226 227 232 231 225 226 233 233 224 219 223 231 236 230 222 234 241 221 205 213 217 217 224 226 226
275 275 275 273 270 266 262 258 255 252 250 248 248 244 239 237 237 237 237 236 233 229 226 226 225 223 221 221 224 224 221 219 219 219 221 220 210 199 200 205 213 227 227 214 204 206 214 220 224 232 234 232 232 232 226 222 231 238 240 243 244 240 234 226 227 234 233 227 229 233 237 234 227 221 219 224 230 226 229 240 236 221 214 211 217 227 229 231
273 274 274 273 273 271 266 260 254 251 248 246 247 245 239 236 235 235 234 235 234 231 227 223 222 221 218 216 217 218 216 215 216 214 212 214 211 202 198 203 209 221 234 229 211 203 210 221 224 226 232 233 230 231 227 218 221 232 234 233 236 239 240 233 227 229 230 234 237 233 234 241 238 228 220 217 227 234 232 235 239 234 222 212 216 227 228 231
271 273 274 274 273 270 265 260 256 252 248 245 246 246 242 237 236 235 233 232 232 231 228 225 222 221 220 217 214 213 211 211 214 214 210 207 205 202 199 200 204 213 225 225 211 205 211 221 227 227 228 232 232 232 231 223 216 219 229 230 227 229 239 241 234 228 227 234 240 232 230 235 236 233 228 218 218 230 235 232 235 237 228 215 215 222 225 230
273 275 276 275 271 264 258 255 255 255 250 245 245 246 244 240 236 233 231 228 228 227 226 227 226 223 221 218 212 208 208 209 211 213 213 210 206 205 202 200 199 206 219 222 211 209 214 220 227 230 230 232 233 228 229 231 222 215 220 227 226 222 226 237 241 238 231 228 230 230 233 238 238 237 234 226 217 221 228 228 230 235 232 219 216 219 220 226
277 276 274 273 269 259 252 250 252 256 254 249 246 246 243 239 237 235 228 222 221 220 219 221 223 223 222 220 215 210 208 209 209 208 210 211 208 205 205 203 198 197 211 225 220 217 222 224 225 228 230 233 230 223 223 228 226 225 227 228 227 225 223 226 233 239 242 236 230 228 231 237 239 238 237 234 230 227 228 229 229 231 235 235 232 229 226 230
Height
5898 5898 5897 5896 5896 5895 5894 5894 5893 5892 5892 5891 5891 5891 5891 5890 5890 5890 5889 5889 5888 5888 5888 5888 5888 5889 5889 5889 5889 5889 5890 5890 5890 5891 5891 5891 5891 5891 5891 5891 5892 5892 5893 5893 5895 5896 5898 5899 5899 5900 5901 5903 5904 5904 5904 5903 5905 5906 5905 5906 5906 5904 5904 5906 5908 5908 5907 5905 5905 5905 5905 5904 5904 5904 5903 5903 5903 5904 5904 5904 5904 5904 5904 5904 5904 5905 5905 5906
5898 5897 5897 5896 5895 5894 5894 5893 5892 5892 5891 5891 5890 5890 5890 5889 5889 5889 5888 5888 5888 5887 5887 5887 5887 5887 5888 5888 5888 5888 5889 5890 5890 5891 5890 5890 5891 5891 5891 5891 5891 5892 5893 5893 5894 5895 5897 5899 5899 5900 5901 5903 5904 5904 5904 5904 5906 5907 5906 5905 5906 5905 5904 5905 5907 5907 5907 5906 5906 5905 5905 5905 5904 5904 5904 5904 5904 5904 5904 5904 5904 5904 5904 5905 5904 5905 5905 5905
5897 5897 5896 5895 5895 5894 5893 5892 5892 5891 5890 5890 5889 5889 5889 5888 5888 5888 5887 5887 5887 5887 5886 5886 5886 5886 5886 5887 5887 5887 5888 5889 5890 5891 5890 5890 5890 5890 5890 5891 5891 5892 5892 5893 5893 5894 5896 5898 5899 5900 5901 5903 5903 5903 5903 5904 5905 5907 5906 5905 5906 5906 5905 5905 5905 5907 5908 5907 5906 5906 5905 5905 5905 5905 5905 5904 5904 5904 5904 5905 5904 5904 5904 5905 5905 5905 5905 5905
5897 5896 5895 5895 5894 5893 5893 5892 5891 5891 5890 5889 5889 5888 5888 5888 5887 5887 5886 5886 5886 5886 5885 5885 5885 5885 5885 5886 5886 5886 5887 5888 5890 5890 5889 5889 5889 5890 5890 5890 5891 5892 5892 5892 5893 5894 5895 5896 5898 5899 5900 5901 5901 5901 5902 5904 5904 5905 5905 5905 5906 5906 5905 5905 5904 5905 5907 5907 5907 5906 5906 5906 5906 5906 5905 5905 5905 5905 5905 5905 5904 5904 5904 5905 5905 5905 5905 5905
5896 5895 5895 5894 5893 5893 5892 5891 5891 5890 5889 5889 5888 5888 5887 5887 5887 5886 5886 5885 5885 5885 5885 5884 5884 5884 5884 5884 5885 5885 5886 5887 5889 5888 5887 5888 5888 5889 5889 5890 5890 5891 5891 5892 5893 5893 5894 5895 5896 5897 5899 5900 5900 5901 5903 5905 5905 5905 5905 5906 5906 5907 5907 5907 5904 5905 5907 5907 5908 5907 5907 5906 5906 5906 5906 5905 5905 5905 5905 5905 5905 5904 5904 5905 5905 5905 5905 5905
5895 5895 5894 5893 5893 5892 5891 5891 5890 5889 5889 5888 5888 5887 5887 5886 5886 5885 5885 5885 5884 5884 5884 5883 5883 5883 5883 5883 5883 5884 5885 5886 5887 5886 5887 5887 5887 5888 5888 5889 5890 5890 5891 5892 5893 5893 5894 5895 5895 5896 5897 5898 5899 5901 5904 5907 5908 5907 5907 5907 5906 5907 5908 5908 5905 5906 5907 5907 5908 5907 5907 5907 5907 5907 5906 5906 5905 5904 5905 5905 5905 5904 5904 5905 5905 5905 5906 5905
5894 5894 5893 5893 5892 5891 5891 5890 5889 5889 5888 5887 5887 5886 5886 5886 5885 5885 5884 5884 5884 5883 5883 5883 5882 5882 5882 5882 5882 5883 5883 5884 5886 5886 5886 5886 5887 5887 5887 5888 5889 5889 5890 5892 5892 5893 5894 5894 5895 5896 5897 5898 5899 5901 5903 5907 5911 5910 5908 5906 5907 5908 5908 5907 5907 5907 5908 5907 5908 5907 5908 5908 5907 5907 5906 5906 5906 5904 5904 5905 5905 5905 5904 5904 5905 5905 5906 5906
5893 5893 5892 5892 5891 5890 5890 5889 5888 5888 5887 5887 5886 5886 5885 5885 5884 5884 5883 5883 5883 5882 5882 5882 5882 5881 5881 5881 5881 5882 5882 5883 5884 5884 5884 5885 5886 5886 5886 5887 5888 5889 5890 5891 5892 5893 5893 5894 5895 5896 5896 5898 5899 5900 5902 5906 5911 5913 5911 5907 5907 5908 5907 5908 5908 5908 5907 5907 5907 5907 5908 5908 5907 5907 5906 5906 5906 5904 5904 5905 5905 5905 5904 5904 5905 5905 5906 5907
5892 5892 5891 5890 5890 5889 5889 5888 5888 5887 5886 5886 5885 5885 5884 5884 5883 5883 5883 5882 5882 5882 5881 5881 5881 5881 5880 5880 5880 5881 5880 5881 5882 5881 5882 5884 5884 5884 5885 5886 5887 5887 5888 5889 5891 5892 5892 5894 5895 5895 5896 5897 5897 5899 5902 5906 5909 5912 5913 5909 5906 5907 5907 5908 5908 5907 5907 5906 5907 5907 5908 5908 5907 5907 5906 5906 5906 5904 5904 5905 5905 5905 5904 5905 5905 5905 5906 5906
5891 5891 5890 5889 5889 5889 5888 5888 5887 5886 5886 5885 5884 5884 5883 5883 5882 5882 5882 5881 5881 5881 5881 5880 5880 5880 5880 5879 5880 5879 5879 5879 5880 5880 5881 5883 5883 5883 5884 5884 5885 5886 5887 5888 5889 5890 5892 5894 5894 5895 5895 5895 5895 5896 5900 5905 5908 5910 5913 5910 5907 5907 5908 5908 5908 5908 5908 5906 5906 5907 5907 5908 5907 5907 5906 5906 5906 5904 5904 5905 5905 5905 5905 5905 5905 5905 5906 5906
5890 5889 5889 5888 5888 5887 5887 5887 5886 5886 5885 5884 5883 5883 5882 5882 5881 5881 5880 5880 5880 5880 5880 5879 5879 5879 5879 5879 5879 5878 5878 5878 5879 5879 5880 5881 5882 5882 5883 5883 5884 5885 5886 5887 5888 5889 5891 5892 5893 5893 5893 5893 5894 5894 5896 5900 5904 5908 5912 5912 5908 5906 5908 5908 5908 5909 5909 5906 5906 5907 5907 5907 5907 5906 5906 5906 5906 5905 5904 5905 5905 5905 5905 5905 5905 5906 5906 5906
5888 5888 5888 5887 5886 5886 5886 5885 5885 5884 5884 5883 5882 5882 5881 5880 5880 5879 5879 5879 5879 5878 5878 5878 5878 5878 5878 5878 5877 5877 5877 5877 5877 5878 5878 5879 5879 5881 5882 5882 5883 5884 5885 5885 5886 5888 5889 5890 5891 5891 5892 5893 5894 5896 5897 5897 5899 5903 5909 5913 5910 5906 5906 5907 5908 5909 5909 5906 5905 5906 5906 5906 5906 5906 5906 5906 5906 5905 5905 5905 5905 5905 5905 5905 5905 5906 5906 5906
5886 5886 5886 5885 5885 5884 5884 5884 5883 5883 5883 5882 5881 5881 5880 5879 5879 5878 5878 5877 5877 5877 5877 5877 5876 5876 5876 5876 5876 5876 5875 5876 5876 5876 5877 5877 5878 5879 5880 5881 5881 5882 5883 5884 5885 5886 5887 5888 5888 5889 5891 5892 5893 5896 5897 5897 5898 5900 5902 5907 5908 5907 5907 5906 5906 5908 5909 5906 5905 5905 5905 5905 5906 5905 5905 5905 5906 5905 5905 5905 5905 5905 5905 5906 5906 5906 5907 5907
5884 5884 5884 5883 5883 5883 5882 5882 5882 5882 5881 5880 5880 5879 5879 5878 5878 5877 5877 5876 5876 5875 5875 5875 5875 5875 5875 5875 5875 5875 5874 5874 5874 5875 5875 5876 5876 5877 5878 5879 5879 5880 5882 5883 5884 5884 5885 5886 5886 5888 5889 5891 5893 5894 5894 5894 5897 5899 5900 5902 5904 5906 5909 5907 5905 5907 5909 5906 5904 5905 5905 5905 5905 5905 5904 5905 5905 5905 5905 5905 5905 5905 5905 5906 5906 5907 5907 5907
5882 5881 5881 5881 5881 5880 5880 5880 5880 5879 5879 5879 5878 5878 5877 5877 5876 5876 5875 5874 5874 5874 5873 5873 5873 5873 5873 5873 5873 5873 5873 5873 5873 5873 5874 5875 5875 5875 5876 5876 5877 5879 5880 5881 5882 5883 5884 5884 5885 5886 5888 5890 5892 5892 5892 5893 5895 5897 5899 5901 5902 5904 5907 5906 5904 5905 5907 5905 5903 5905 5904 5904 5904 5904 5904 5904 5905 5905 5905 5905 5905 5905 5905 5906 5906 5907 5907 5907
5879 5879 5879 5879 5878 5878 5878 5877 5877 5877 5877 5877 5876 5876 5875 5875 5875 5874 5874 5873 5873 5872 5871 5871 5871 5871 5871 5871 5871 5872 5872 5871 5871 5872 5873 5873 5873 5874 5874 5875 5876 5877 5878 5879 5880 5881 5882 5883 5884 5885 5887 5888 5889 5890 5892 5892 5894 5896 5898 5900 5903 5905 5906 5905 5903 5904 5905 5903 5903 5904 5903 5903 5904 5904 5904 5904 5904 5905 5905 5905 5905 5905 5906 5906 5907 5907 5907 5908
5877 5876 5876 5876 5876 5875 5875 5875 5875 5874 5874 5874 5873 5873 5873 5873 5873 5872 5872 5871 5871 5870 5870 5869 5869 5869 5869 5869 5869 5869 5870 5870 5869 5870 5871 5871 5872 5872 5873 5873 5874 5874 5875 5877 5878 5879 5880 5881 5882 5884 5885 5886 5887 5889 5890 5890 5893 5895 5897 5899 5902 5905 5907 5905 5903 5903 5903 5902 5902 5903 5903 5903 5904 5904 5904 5903 5904 5904 5904 5905 5905 5905 5906 5906 5907 5907 5907 5908
5874 5873 5872 5873 5873 5873 5873 5872 5872 5872 5871 5871 5871 5870 5870 5870 5870 5870 5870 5870 5869 5868 5867 5867 5868 5868 5867 5868 5868 5867 5868 5868 5868 5868 5869 5870 5870 5871 5871 5871 5872 5872 5873 5873 5875 5877 5878 5879 5880 5882 5883 5883 5885 5886 5886 5889 5893 5895 5897 5899 5900 5904 5908 5905 5903 5902 5902 5901 5902 5902 5902 5902 5903 5903 5904 5903 5903 5903 5904 5904 5905 5905 5906 5906 5907 5907 5908 5908
5871 5870 5869 5869 5869 5870 5870 5870 5869 5869 5868 5868 5868 5867 5867 5868 5867 5867 5868 5867 5866 5866 5865 5865 5866 5865 5864 5866 5866 5865 5866 5867 5866 5866 5867 5868 5868 5869 5869 5870 5870 5870 5870 5871 5873 5874 5875 5877 5877 5878 5880 5881 5883 5884 5886 5890 5893 5895 5898 5901 5901 5904 5907 5904 5902 5901 5901 5901 5900 5900 5901 5901 5902 5902 5903 5903 5902 5903 5903 5903 5904 5905 5905 5906 5906 5907 5908 5908
5868 5868 5867 5866 5866 5866 5867 5867 5866 5866 5866 5865 5865 5865 5864 5865 5864 5864 5865 5864 5863 5864 5863 5863 5864 5863 5862 5863 5864 5864 5865 5865 5864 5864 5865 5866 5866 5867 5868 5868 5868 5868 5869 5869 5871 5872 5872 5873 5874 5877 5880 5881 5883 5884 5886 5890 5892 5893 5896 5900 5903 5905 5905 5903 5902 5901 5899 5900 5900 5900 5900 5900 5901 5901 5902 5902 5902 5902 5902 5903 5904 5904 5905 5906 5906 5907 5907 5908
5866 5865 5864 5863 5862 5862 5863 5863 5863 5863 5862 5862 5862 5861 5861 5862 5860 5861 5862 5862 5861 5861 5861 5861 5862 5862 5860 5860 5862 5862 5862 5863 5863 5862 5862 5864 5864 5865 5865 5866 5866 5867 5867 5868 5868 5869 5869 5870 5873 5877 5880 5881 5883 5884 5886 5888 5890 5891 5892 5896 5902 5905 5904 5902 5903 5901 5898 5900 5900 5899 5899 5899 5899 5901 5901 5902 5901 5901 5901 5902 5903 5903 5904 5905 5906 5906 5907 5908
5863 5862 5861 5860 5859 5859 5859 5859 5859 5859 5858 5858 5858 5858 5858 5858 5857 5857 5858 5859 5859 5857 5858 5859 5858 5860 5858 5856 5860 5860 5859 5860 5860 5859 5860 5861 5862 5862 5863 5863 5864 5865 5865 5865 5865 5866 5866 5869 5873 5876 5878 5879 5881 5882 5884 5886 5887 5889 5890 5893 5898 5902 5903 5903 5903 5902 5898 5897 5899 5898 5897 5897 5897 5899 5900 5900 5900 5900 5901 5901 5902 5903 5904 5905 5905 5906 5906 5907
5859 5859 5858 5857 5855 5855 5855 5856 5855 5855 5855 5854 5854 5854 5854 5854 5854 5854 5853 5855 5857 5854 5854 5856 5856 5857 5857 5855 5856 5857 5857 5858 5857 5856 5858 5859 5859 5859 5860 5861 5862 5862 5863 5862 5864 5864 5865 5869 5872 5873 5875 5876 5878 5880 5882 5883 5884 5886 5888 5890 5893 5898 5901 5901 5903 5904 5898 5895 5898 5897 5896 5897 5896 5895 5896 5897 5898 5899 5900 5901 5901 5902 5903 5904 5905 5905 5906 5906
5855 5855 5854 5853 5852 5851 5852 5852 5851 5851 5851 5851 5851 5851 5850 5850 5850 5850 5850 5851 5853 5852 5850 5852 5853 5854 5855 5853 5852 5853 5856 5855 5853 5854 5856 5857 5857 5856 5858 5859 5859 5859 5860 5861 5862 5862 5864 5867 5869 5869 5871 5873 5875 5877 5878 5880 5881 5883 5885 5887 5890 5894 5898 5899 5902 5902 5896 5893 5896 5896 5895 5895 5895 5894 5894 5895 5896 5897 5899 5899 5900 5901 5902 5903 5903 5904 5905 5906
5850 5850 5850 5850 5848 5847 5847 5848 5847 5847 5847 5847 5847 5847 5846 5846 5846 5846 5846 5846 5849 5850 5846 5847 5850 5851 5852 5850 5849 5851 5852 5850 5851 5852 5853 5854 5854 5854 5855 5856 5855 5857 5858 5859 5859 5860 5862 5864 5865 5866 5868 5869 5871 5872 5875 5877 5879 5881 5882 5885 5888 5893 5897 5898 5899 5899 5894 5892 5894 5894 5893 5893 5893 5894 5893 5893 5895 5897 5897 5898 5899 5900 5901 5902 5902 5903 5904 5905
5844 5845 5845 5845 5844 5843 5842 5843 5843 5842 5843 5843 5843 5843 5842 5842 5842 5842 5842 5841 5844 5846 5843 5844 5846 5848 5849 5848 5847 5848 5846 5847 5850 5849 5849 5851 5851 5851 5852 5852 5853 5855 5855 5856 5856 5857 5860 5861 5862 5863 5865 5866 5867 5868 5872 5875 5877 5878 5880 5884 5885 5889 5894 5896 5898 5897 5892 5891 5893 5892 5892 5892 5892 5893 5892 5892 5893 5895 5895 5895 5897 5898 5899 5901 5902 5903 5904 5904
5838 5839 5840 5839 5839 5839 5837 5837 5838 5837 5838 5839 5839 5838 5838 5838 5838 5838 5838 5836 5838 5840 5840 5841 5843 5844 5845 5844 5844 5843 5842 5845 5846 5845 5846 5849 5849 5848 5849 5850 5851 5852 5853 5853 5853 5854 5857 5859 5859 5860 5862 5863 5863 5864 5869 5872 5873 5875 5879 5883 5884 5885 5888 5892 5895 5895 5891 5891 5891 5888 5888 5888 5888 5890 5891 5891 5891 5892 5892 5892 5894 5896 5897 5899 5901 5902 5903 5904
5833 5833 5834 5834 5833 5834 5833 5831 5831 5832 5832 5833 5834 5833 5834 5834 5834 5834 5833 5832 5833 5835 5836 5838 5839 5839 5839 5839 5841 5841 5840 5841 5842 5843 5844 5845 5845 5845 5845 5847 5849 5849 5850 5849 5849 5852 5855 5856 5856 5857 5859 5860 5861 5863 5867 5869 5870 5873 5878 5882 5883 5884 5885 5887 5891 5893 5893 5892 5889 5887 5886 5884 5885 5886 5888 5889 5888 5889 5889 5890 5892 5893 5895 5897 5899 5900 5901 5902
5827 5826 5827 5827 5827 5828 5828 5826 5825 5825 5826 5827 5828 5828 5829 5829 5829 5829 5828 5828 5831 5832 5831 5832 5833 5834 5834 5834 5837 5838 5836 5837 5838 5839 5840 5840 5841 5842 5843 5845 5845 5845 5845 5845 5847 5849 5851 5852 5854 5855 5856 5858 5860 5861 5864 5866 5867 5871 5876 5878 5881 5882 5883 5884 5885 5888 5892 5890 5887 5887 5885 5881 5882 5883 5884 5885 5885 5886 5888 5889 5890 5891 5893 5895 5897 5898 5899 5901
5820 5820 5820 5820 5820 5820 5821 5820 5820 5819 5819 5820 5821 5822 5823 5823 5824 5823 5821 5823 5828 5828 5825 5826 5828 5829 5829 5830 5832 5833 5832 5835 5835 5832 5835 5838 5837 5838 5840 5841 5841 5841 5842 5842 5843 5846 5847 5849 5850 5851 5853 5855 5857 5858 5859 5862 5864 5869 5873 5875 5877 5879 5882 5884 5883 5885 5885 5882 5883 5886 5885 5880 5878 5879 5881 5881 5882 5885 5886 5887 5888 5889 5891 5893 5895 5896 5897 5899
5812 5812 5812 5812 5813 5813 5813 5813 5814 5814 5812 5813 5814 5815 5815 5817 5817 5816 5816 5821 5824 5822 5819 5821 5823 5823 5825 5825 5827 5828 5828 5830 5830 5827 5830 5834 5833 5834 5835 5836 5837 5838 5838 5839 5841 5843 5844 5845 5847 5849 5851 5852 5854 5855 5855 5858 5861 5865 5868 5871 5873 5875 5879 5881 5880 5881 5878 5874 5878 5884 5885 5880 5875 5875 5879 5880 5881 5884 5884 5885 5886 5886 5888 5891 5893 5894 5895 5896
5804 5804 5804 5804 5805 5806 5805 5804 5806 5806 5805 5806 5806 5807 5808 5809 5809 5809 5813 5817 5817 5816 5815 5814 5815 5817 5819 5821 5821 5822 5822 5824 5824 5823 5826 5829 5829 5829 5831 5832 5834 5834 5835 5836 5838 5840 5841 5842 5844 5845 5847 5848 5850 5851 5852 5854 5857 5860 5863 5866 5868 5871 5873 5872 5873 5874 5872 5872 5877 5882 5883 5879 5873 5874 5878 5879 5879 5881 5882 5884 5885 5884 5885 5888 5890 5891 5893 5893
5796 5796 5795 5795 5796 5797 5797 5796 5798 5797 5798 5798 5798 5799 5801 5800 5801 5805 5810 5811 5810 5812 5810 5807 5808 5809 5812 5815 5816 5816 5818 5818 5819 5818 5821 5824 5824 5824 5826 5828 5829 5830 5832 5834 5834 5835 5836 5838 5839 5840 5843 5845 5845 5847 5849 5850 5851 5853 5856 5859 5862 5865 5865 5865 5867 5870 5871 5872 5876 5880 5879 5875 5873 5874 5875 5876 5877 5878 5879 5881 5883 5882 5881 5885 5888 5888 5890 5891
5788 5787 5787 5786 5787 5788 5788 5788 5789 5789 5789 5790 5790 5791 5791 5791 5797 5802 5803 5803 5805 5807 5805 5802 5803 5803 5804 5808 5810 5811 5812 5813 5814 5813 5815 5818 5819 5819 5820 5822 5824 5826 5829 5829 5829 5830 5831 5832 5835 5837 5839 5842 5843 5845 5847 5848 5848 5848 5852 5856 5857 5859 5860 5861 5865 5868 5869 5870 5873 5876 5872 5869 5873 5875 5874 5874 5874 5875 5877 5879 5880 5879 5879 5882 5884 5885 5886 5887
5778 5778 5778 5777 5777 5778 5778 5778 5779 5780 5780 5781 5781 5782 5782 5786 5792 5795 5795 5796 5797 5800 5800 5799 5799 5798 5798 5800 5802 5805 5806 5807 5808 5808 5808 5810 5813 5814 5815 5818 5820 5822 5824 5825 5824 5826 5827 5828 5832 5835 5836 5838 5840 5842 5843 5845 5844 5845 5849 5851 5851 5854 5857 5860 5863 5865 5868 5869 5868 5869 5867 5867 5871 5874 5874 5874 5873 5873 5874 5876 5877 5876 5877 5879 5879 5881 5884 5885
5768 5768 5768 5767 5767 5768 5768 5768 5769 5769 5770 5771 5771 5773 5776 5781 5785 5785 5787 5789 5789 5791 5793 5792 5793 5793 5793 5794 5795 5797 5800 5801 5802 5801 5801 5803 5806 5809 5810 5812 5815 5816 5818 5820 5822 5823 5824 5825 5828 5830 5831 5833 5835 5837 5838 5840 5841 5843 5844 5844 5847 5853 5856 5857 5859 5863 5866 5864 5862 5864 5865 5867 5870 5870 5872 5872 5871 5871 5871 5872 5873 5873 5874 5876 5876 5878 5881 5884
5757 5758 5756 5755 5757 5757 5757 5758 5758 5757 5759 5759 5759 5765 5771 5773 5774 5775 5778 5780 5780 5782 5783 5783 5785 5786 5787 5789 5789 5790 5793 5795 5795 5795 5795 5796 5799 5803 5805 5806 5809 5811 5813 5816 5818 5820 5821 5822 5823 5824 5826 5828 5831 5833 5834 5836 5839 5840 5839 5840 5846 5851 5851 5851 5855 5859 5860 5857 5858 5861 5863 5865 5866 5866 5869 5870 5868 5868 5868 5868 5870 5871 5872 5873 5873 5873 5877 5882
5745 5746 5743 5742 5745 5746 5745 5747 5746 5745 5746 5746 5750 5758 5761 5761 5764 5766 5768 5770 5771 5772 5772 5773 5777 5779 5780 5782 5783 5785 5786 5787 5789 5790 5790 5790 5791 5796 5800 5801 5803 5806 5809 5812 5814 5815 5817 5818 5819 5819 5820 5823 5826 5827 5828 5831 5834 5836 5837 5840 5842 5843 5843 5845 5848 5852 5854 5852 5854 5858 5859 5860 5862 5863 5866 5867 5866 5866 5866 5866 5867 5869 5871 5872 5873 5871 5872 5876
5732 5734 5730 5728 5731 5731 5732 5734 5732 5732 5732 5734 5741 5748 5749 5750 5753 5755 5757 5759 5760 5761 5762 5765 5768 5770 5773 5775 5776 5779 5780 5779 5782 5784 5784 5784 5786 5789 5792 5795 5798 5800 5803 5806 5809 5811 5812 5813 5816 5817 5817 5818 5819 5820 5823 5826 5829 5832 5834 5835 5837 5837 5838 5841 5843 5845 5848 5848 5851 5854 5854 5855 5857 5861 5864 5864 5865 5865 5865 5864 5865 5867 5871 5872 5873 5871 5869 5872
5718 5720 5716 5715 5715 5714 5718 5720 5718 5718 5719 5723 5731 5734 5736 5739 5741 5743 5746 5748 5749 5750 5752 5756 5758 5759 5763 5766 5767 5771 5774 5775 5777 5777 5777 5778 5781 5783 5785 5788 5792 5794 5796 5798 5803 5808 5807 5806 5810 5814 5814 5812 5809 5811 5818 5823 5825 5826 5827 5829 5831 5832 5834 5837 5839 5841 5843 5844 5847 5850 5849 5850 5854 5859 5862 5863 5864 5864 5863 5864 5863 5864 5868 5869 5870 5871 5868 5868
5702 5704 5701 5700 5698 5697 5702 5704 5704 5705 5705 5710 5717 5719 5721 5725 5727 5730 5734 5735 5736 5739 5741 5743 5746 5749 5753 5756 5758 5763 5767 5769 5771 5771 5771 5771 5774 5777 5780 5782 5785 5788 5790 5790 5793 5800 5803 5801 5803 5809 5809 5806 5804 5808 5814 5819 5820 5821 5823 5825 5827 5829 5830 5832 5833 5836 5839 5839 5841 5845 5845 5847 5852 5857 5859 5861 5862 5860 5859 5862 5861 5860 5864 5865 5867 5871 5868 5866
5684 5687 5686 5683 5680 5682 5685 5686 5690 5691 5689 5695 5701 5703 5706 5710 5713 5717 5721 5722 5724 5727 5728 5730 5734 5738 5741 5745 5749 5753 5757 5760 5764 5766 5766 5765 5767 5771 5775 5777 5780 5783 5785 5785 5785 5791 5798 5798 5797 5800 5804 5804 5804 5806 5807 5811 5815 5817 5818 5821 5824 5824 5825 5826 5827 5831 5835 5835 5837 5840 5840 5842 5849 5853 5855 5857 5860 5858 5856 5858 5859 5859 5861 5862 5865 5869 5868 5866
5665 5670 5672 5666 5663 5665 5666 5668 5674 5674 5673 5680 5685 5687 5691 5695 5698 5702 5705 5708 5711 5714 5715 5717 5722 5727 5729 5734 5739 5741 5744 5748 5752 5758 5761 5761 5762 5764 5768 5772 5775 5778 5779 5780 5781 5783 5788 5792 5791 5792 5797 5801 5803 5803 5802 5804 5808 5809 5811 5814 5816 5818 5820 5822 5824 5827 5830 5832 5834 5834 5833 5836 5843 5849 5851 5853 5855 5855 5855 5856 5857 5858 5861 5863 5865 5866 5866 5866
5648 5652 5656 5652 5648 5649 5649 5653 5659 5658 5658 5665 5668 5671 5677 5679 5683 5687 5690 5694 5697 5700 5702 5705 5710 5715 5717 5722 5725 5728 5733 5735 5739 5746 5751 5756 5760 5762 5762 5765 5768 5771 5774 5776 5777 5776 5777 5783 5786 5786 5788 5793 5797 5798 5795 5796 5798 5800 5804 5808 5810 5813 5816 5818 5822 5825 5825 5826 5829 5829 5829 5833 5840 5844 5847 5848 5849 5851 5853 5855 5856 5857 5860 5862 5863 5863 5862 5862
5631 5635 5640 5639 5634 5634 5635 5639 5641 5641 5644 5647 5649 5654 5659 5661 5665 5670 5674 5678 5682 5685 5688 5692 5698 5703 5705 5709 5712 5717 5722 5724 5726 5733 5739 5745 5753 5756 5758 5761 5762 5765 5769 5771 5772 5772 5771 5774 5779 5780 5780 5783 5787 5790 5789 5791 5794 5797 5801 5805 5806 5808 5811 5813 5816 5820 5820 5821 5824 5825 5828 5834 5839 5840 5842 5844 5845 5847 5849 5851 5853 5855 5858 5860 5860 5859 5859 5858
5615 5618 5624 5625 5621 5620 5623 5625 5626 5627 5628 5629 5632 5637 5642 5644 5649 5654 5656 5659 5665 5670 5673 5678 5685 5688 5691 5695 5698 5703 5710 5714 5717 5722 5729 5736 5742 5748 5753 5758 5758 5758 5761 5764 5765 5766 5766 5767 5770 5772 5775 5777 5781 5786 5789 5790 5792 5793 5796 5801 5803 5803 5806 5808 5809 5811 5814 5817 5819 5820 5824 5831 5835 5837 5839 5840 5842 5844 5843 5844 5847 5850 5853 5855 5855 5854 5854 5855
5601 5604 5609 5609 5608 5610 5612 5613 5614 5614 5613 5614 5617 5623 5630 5633 5637 5643 5644 5645 5649 5652 5653 5660 5668 5673 5679 5685 5688 5691 5699 5706 5708 5712 5720 5727 5732 5739 5745 5751 5752 5750 5751 5755 5758 5760 5762 5762 5762 5764 5769 5774 5777 5782 5787 5788 5788 5789 5792 5795 5797 5799 5801 5802 5803 5805 5809 5812 5813 5816 5819 5823 5828 5832 5835 5836 5839 5841 5841 5839 5842 5846 5847 5850 5851 5849 5850 5851
5591 5593 5596 5595 5594 5599 5601 5601 5601 5601 5601 5603 5603 5608 5615 5619 5623 5630 5633 5635 5637 5637 5637 5645 5651 5654 5660 5668 5672 5677 5685 5692 5697 5704 5713 5719 5723 5728 5734 5741 5745 5743 5743 5747 5751 5753 5754 5754 5756 5759 5763 5768 5772 5775 5780 5784 5784 5786 5788 5790 5792 5794 5795 5797 5798 5801 5805 5806 5807 5812 5814 5816 5822 5826 5829 5832 5835 5836 5837 5835 5837 5842 5844 5846 5847 5846 5846 5848
5584 5584 5586 5584 5584 5587 5589 5590 5591 5591 5592 5595 5594 5596 5603 5605 5608 5615 5619 5622 5627 5628 5628 5632 5636 5638 5642 5647 5652 5659 5666 5671 5677 5688 5699 5707 5712 5717 5723 5730 5736 5737 5735 5738 5743 5745 5745 5745 5750 5754 5757 5761 5766 5769 5772 5777 5780 5783 5785 5787 5788 5789 5790 5792 5794 5797 5799 5799 5802 5809 5811 5812 5816 5819 5823 5828 5829 5830 5832 5832 5832 5836 5839 5842 5842 5840 5841 5844
5577 5576 5576 5576 5577 5579 5580 5581 5583 5582 5585 5587 5587 5589 5593 5595 5598 5603 5607 5612 5617 5619 5617 5619 5624 5630 5634 5638 5640 5641 5644 5650 5658 5669 5680 5688 5695 5704 5711 5717 5725 5729 5728 5728 5733 5736 5737 5739 5743 5749 5752 5755 5759 5763 5766 5769 5773 5778 5781 5783 5784 5785 5786 5787 5788 5791 5794 5795 5798 5804 5805 5805 5808 5812 5817 5822 5824 5825 5827 5828 5828 5829 5833 5837 5837 5836 5837 5839
5570 5570 5569 5569 5571 5573 5574 5575 5576 5576 5578 5580 5581 5582 5585 5588 5591 5594 5598 5603 5607 5610 5612 5613 5617 5623 5626 5630 5630 5627 5631 5641 5650 5659 5667 5672 5680 5689 5695 5700 5709 5718 5720 5720 5725 5729 5730 5734 5739 5743 5746 5749 5753 5758 5761 5764 5767 5770 5773 5776 5777 5779 5782 5784 5784 5785 5788 5791 5794 5798 5799 5800 5804 5807 5810 5815 5820 5821 5821 5822 5824 5824 5827 5831 5832 5832 5834 5835
5564 5564 5564 5563 5566 5568 5569 5570 5571 5571 5573 5574 5575 5576 5578 5581 5584 5585 5587 5592 5597 5602 5605 5605 5609 5616 5618 5620 5620 5622 5629 5637 5643 5651 5658 5663 5670 5676 5680 5686 5697 5708 5713 5715 5719 5721 5722 5727 5735 5738 5739 5742 5748 5752 5756 5760 5760 5759 5761 5767 5771 5775 5779 5782 5782 5782 5784 5787 5789 5791 5794 5796 5799 5802 5805 5809 5813 5815 5816 5817 5819 5821 5822 5826 5828 5828 5830 5832